Skip Page Navigation
NASA JPL Caltech
NASA Logo - Jet Propulsion Laboratory + View the NASA Portal
+ Center for Near-Earth Object Studies
JPL Home Earth Solar System Stars & Galaxies Technology
JPL Solar System Dynamics
BODIES ORBITS EPHEMERIDES TOOLS PHYSICAL DATA DISCOVERY FAQ SITE MAP
JPL Small-Body Database Browser
Search: [ help ]  
193011 (2000 EO19)
Classification: Main-belt Asteroid          SPK-ID: 2193011
Ephemeris | Orbit Diagram | Orbital Elements | Mission Design | Physical Parameters | Discovery Circumstances | Close-Approach Data ]

[ show orbit diagram ]
Orbital Elements at Epoch 2459000.5 (2020-May-31.0) TDB
Reference: JPL 17 (heliocentric ecliptic J2000)
 Element Value Uncertainty (1-sigma)   Units 
e .167927531617229 5.9373e-08  
a 3.140227408589545 3.1912e-08 au
q 2.612896771148335 1.8075e-07 au
i 17.37910140079458 6.7356e-06 deg
node 24.33121688651971 1.7166e-05 deg
peri 205.0794512947514 2.3501e-05 deg
M 187.5083942187926 1.7787e-05 deg
tp 2459974.380210938621
(2023-Jan-29.88021094)
0.00010676 TDB
period 2032.544565575029
5.56
3.0983e-05
8.483e-08
d
yr
n .1771178876455051 2.6999e-09 deg/d
Q 3.667558046030755 3.7271e-08 au
  Orbit Determination Parameters
   # obs. used (total)      418  
   data-arc span      7268 days (19.90 yr)  
   first obs. used      2000-03-05  
   last obs. used      2020-01-28  
   planetary ephem.      DE431  
   SB-pert. ephem.      SB431-N16  
   condition code      0  
   norm. resid. RMS      .55361  
   source      ORB  
   producer      Otto Matic  
   solution date      2020-Feb-24 21:57:38  

Additional Information
 Earth MOID = 1.61444 au 
 Jupiter MOID = 1.35586 au 
 T_jup = 3.119 
[ show covariance matrix ]

Ephemeris | Orbit Diagram | Orbital Elements | Mission Design | Physical Parameters | Discovery Circumstances | Close-Approach Data ]

Physical Parameter Table
Parameter Symbol Value Units Sigma Reference Notes
absolute magnitude H 14.8   n/a MPO454338  
diameter diameter 6.283 km 0.319 urn:nasa:pds:neowise_diameters_albedos::2.0[mainbelt] (http://adsabs.harvard.edu/abs/2011ApJ...741...68M)  
geometric albedo albedo 0.065   0.008 urn:nasa:pds:neowise_diameters_albedos::2.0[mainbelt] (http://adsabs.harvard.edu/abs/2011ApJ...741...68M)  

193011 (2000 EO19)          Discovered 2000-Mar-05 by LINEAR at Socorro
Reference: 20081113/Numbers.arcLast Updated: 2008-11-17

[ show close-approach data ]
Ephemeris | Orbit Diagram | Orbital Elements | Mission Design | Physical Parameters | Discovery Circumstances | Close-Approach Data ]
ABOUT SSD CREDITS/AWARDS PRIVACY/COPYRIGHT GLOSSARY LINKS
FirstGov 2020-Oct-25 23:59 UT
(server date/time)  
NASA Home Page
Site Manager:   Ryan S. Park
Webmaster  Alan B. Chamberlin